Overview Statistics Trail Chart Weather Telemetry Raw packets
 

This is the latest recevied weather packets stored in our database for station/object OM5ZU-10. If no packets are shown the sender has not sent any weather packets the latest 10 day(s).

<< 34 35 36 37 38 39 >>
Time Temp. Humidity Pressure Rain* Wind** Luminosity Snow
1787774457 17.22° C 72% 1017.3 hPa - - - -
1787773557 17.78° C 72% 1017.2 hPa - - - -
1787772657 17.78° C 72% 1017.2 hPa - - - -
1787771757 19.44° C 72% 1017.2 hPa - - - -
1787770856 21.11° C 72% 1017.1 hPa - - - -
1787769956 21.11° C 72% 1016.9 hPa - - - -
1787769056 21.67° C 72% 1016.7 hPa - - - -
1787768156 21.67° C 72% 1016.7 hPa - - - -
1787767257 20.56° C 72% 1016.7 hPa - - - -
1787766356 21.67° C 72% 1016.6 hPa - - - -
1787765455 22.78° C 72% 1016.5 hPa - - - -
1787764555 23.89° C 72% 1016.5 hPa - - - -
1787763655 25.56° C 72% 1016.4 hPa - - - -
1787762755 25.56° C 72% 1016.4 hPa - - - -
1787761855 27.78° C 73% 1016.4 hPa - - - -
1787760955 26.67° C 72% 1016.2 hPa - - - -
1787760054 26.67° C 72% 1016.1 hPa - - - -
1787759154 27.22° C 73% 1016.2 hPa - - - -
1787758254 28.33° C 73% 1016.2 hPa - - - -
1787757354 28.89° C 73% 1016.3 hPa - - - -
1787756454 30° C 73% 1016.2 hPa - - - -
1787755554 29.44° C 73% 1016.3 hPa - - - -
1787754653 28.33° C 73% 1016.3 hPa - - - -
1787753753 29.44° C 73% 1016.4 hPa - - - -
1787752853 29.44° C 73% 1016.6 hPa - - - -

* Rain since midnight (hover to see other rain measurements)
** Current wind speed in m/s (hover to see current wind gust speed)